[[{"header":{"parameterUnit":"m.s-1","parameterCategory":1,"la1":30.2991,"la2":30.254,"lo1":-89.0895,"lo2":-89.0444,"dy":0.0017,"dx":0.0017,"nx":28,"ny":28,"refTime":"2024-07-13T21:00:00:Z","depth":0,"parameterNumber":2,"parameterNumberName":"U-component_of_WINDS"},"data":[0,0,0,0,0,0,0,0,0,0,0,0,0,0,0,0,0,0,0,0,0,0,0,0,0,0,0,0,0,0,0,0,0,0,0,0,0,0,0,0,0,0,0,0,0,0,0,0,0,0,0,0,0,0,0,0,0,0,2.4768,2.4769,0,2.4826,2.4827,2.4828,2.4752,2.4749,2.4746,2.4743,2.4806,2.481,2.4814,0,0,0,0,0,0,0,0,0,0,0,0,0,2.4594,2.4597,2.4768,2.4769,2.4769,2.4826,2.4827,2.4828,2.4752,2.4749,2.4745,2.4742,2.4804,2.4809,2.4814,0,0,0,0,0,0,0,0,0,0,0,0,0,2.4662,2.4598,2.4768,2.4738,2.4736,2.4826,2.4827,2.4828,2.4753,2.4749,2.4744,2.4741,2.4803,2.4809,2.4815,2.4937,0,0,2.4834,2.4837,0,0,0,0,0,0,0,0,2.4659,2.4669,2.4742,2.4741,2.4739,2.4777,2.4788,2.4865,2.4754,2.4747,2.4743,2.4739,2.48,2.4806,2.4826,2.494,2.4943,2.4835,2.4839,2.4842,2.4843,0,0,0,0,0,0,0,2.4654,2.4666,2.4791,2.4743,2.4741,2.4723,2.4728,2.4802,2.4796,2.4747,2.4742,2.4749,2.4798,2.482,2.4827,2.4944,2.4835,2.484,2.4844,2.4847,2.516,2.5165,0,0,0,0,0,0,2.4652,2.4663,2.4789,2.4793,2.4687,2.473,2.4735,2.4769,2.4795,2.4795,2.4753,2.4746,2.4811,2.482,2.4829,2.4974,2.4842,2.4847,2.4851,2.5156,2.5161,2.5166,0,0,0,0,0,0,2.4649,2.4664,2.4787,2.4726,2.474,2.4737,2.4776,2.4772,2.4795,2.4799,2.4798,2.4777,2.4809,2.482,2.4911,2.4975,2.485,2.4856,2.5151,2.5158,2.5164,2.5264,0,0,0,0,0,0,2.4644,2.4664,2.4709,2.4728,2.4744,2.4867,2.4779,2.4777,2.4805,2.4796,2.4821,2.4821,2.4806,2.4902,2.4917,2.4981,2.4861,2.5145,2.5154,2.5162,2.5255,2.5273,2.5289,0,0,0,0,0,2.4638,2.4736,2.4712,2.4728,2.4801,2.4871,2.488,2.486,2.4811,2.4857,2.486,2.4821,2.4965,2.4911,2.4928,2.4995,2.5141,2.5151,2.5161,2.5247,2.527,2.5289,0,0,0,0,0,0,2.4726,2.4738,2.4712,2.4818,2.4844,2.4858,2.4916,2.4885,2.4926,2.4916,2.489,2.4896,2.4993,2.5003,2.4943,2.5115,2.5045,2.5059,2.5105,2.5126,2.5143,2.5139,2.4866,0,0,0,0,0,2.4758,2.4813,2.482,2.4914,2.4928,2.492,2.495,2.4932,2.4958,2.4969,2.4978,2.5006,2.5057,2.5092,2.514,2.5256,2.526,2.531,2.5327,2.5341,2.5354,2.5416,2.5439,2.52,2.52,2.5199,0,0,2.4824,2.4837,2.4874,2.4932,2.495,2.5008,2.493,2.4995,2.5038,2.4979,2.5065,2.5073,2.5102,2.5206,2.5252,2.5217,2.5421,2.5354,2.5365,2.537,2.5429,2.5452,2.5472,2.5207,2.5205,2.5204,0,0,2.4975,2.499,2.5069,2.5089,2.5117,2.5111,2.513,2.5149,2.5151,2.5237,2.5194,2.5245,2.5334,2.5357,2.538,2.5539,2.5504,2.5555,2.5645,2.5706,2.5725,2.5741,2.5798,2.5819,2.5568,2.5568,2.5568,0,2.5054,2.514,2.5115,2.5183,2.5209,2.5157,2.5238,2.5258,2.5301,2.5321,2.5281,2.5392,2.5408,2.5516,2.5555,2.5575,2.5597,2.5553,2.5724,2.574,2.5755,2.5809,2.5831,2.5574,2.5573,2.5573,2.5572,0,2.5236,2.5296,2.5357,2.5398,2.5432,2.5506,2.5493,2.553,2.5509,2.5507,2.5595,2.5612,2.5662,2.5687,2.5667,2.5793,2.577,2.5728,2.5657,2.5785,2.5835,2.5856,2.5583,2.558,2.5579,2.5577,0,0,2.5445,2.5471,2.5494,2.5512,2.5538,2.5585,2.5656,2.5704,2.5737,2.5768,2.5828,2.5904,2.5865,2.5891,2.5874,2.5927,2.6052,2.5878,2.5878,2.591,2.6192,2.6225,2.6249,2.6029,2.6033,2.6036,2.619,0,2.5596,2.5719,2.5699,2.5819,2.5874,2.5825,2.5887,2.5911,2.5911,2.5959,2.5959,2.6014,2.5957,2.5973,2.6023,2.6027,2.6109,2.6015,2.6086,2.6088,2.6081,2.6275,2.631,2.6454,2.6209,2.6213,2.6215,0,2.5789,2.5826,2.5952,2.5969,2.5991,2.6048,2.609,2.6136,2.6162,2.6158,2.6187,2.616,2.6232,2.616,2.6259,2.6196,2.6223,2.6229,2.6234,2.6241,2.616,2.6288,2.65,2.6522,2.6246,2.6243,2.6241,0,2.593,2.6011,2.6096,2.6113,2.6136,2.6177,2.6188,2.621,2.624,2.6277,2.6296,2.6342,2.6367,2.6404,2.6389,2.6338,2.6492,2.6418,2.6492,2.6492,2.6527,2.6525,2.6748,2.6544,2.6544,2.6543,2.6543,0,2.6102,2.618,2.616,2.6213,2.6299,2.6275,2.6362,2.6367,2.6387,2.644,2.64,2.6452,2.6429,2.6479,2.6468,2.6553,2.6564,2.6564,2.656,2.6568,2.6568,2.6586,2.6576,2.6549,2.6548,2.6547,2.6546,0,2.6274,2.6263,2.6353,2.6367,2.6372,2.6435,2.6447,2.6497,2.6493,2.6561,2.6576,2.6571,2.6628,2.6617,2.6679,2.6672,2.6778,2.6762,2.6769,2.6766,2.684,2.6834,2.7083,2.7114,2.6889,2.6892,2.6893,0,2.6385,2.6444,2.6463,2.6496,2.651,2.6563,2.6593,2.6571,2.6604,2.6638,2.6684,2.6736,2.6777,2.687,2.6873,2.692,2.6905,2.6989,2.6912,2.6918,2.6907,2.6904,2.691,2.7005,2.7007,2.7009,2.7011,0,2.6582,2.6574,2.6619,2.6662,2.6699,2.6732,2.6761,2.679,2.6771,2.681,2.6867,2.6899,2.6962,2.7015,2.7059,2.7071,2.7039,2.7035,2.7055,2.7064,2.7066,2.7066,2.6812,2.703,2.7028,2.7026,2.7025,2.7025,2.6728,2.6778,2.68,2.6851,2.687,2.6898,2.6945,2.6948,2.6994,2.7043,2.7027,2.7092,2.7116,2.7172,2.7189,2.724,2.7209,2.7237,2.7245,2.7252,2.7261,2.7057,2.7248,2.7247,2.7247,2.7246,2.7246,0,2.6924,2.6935,2.6982,2.7024,2.7064,2.7028,2.7059,2.7095,2.7153,2.7177,2.7218,2.7283,2.7334,2.734,2.7389,2.7428,2.7415,2.7442,2.7439,2.7443,2.7286,2.7265,2.7452,2.7452,2.7452,2.7452,2.7452,2.7452,2.7031,2.7114,2.7109,2.7201,2.7212,2.7274,2.7295,2.7321,2.734,2.7414,2.7456,2.7459,2.7477,2.7526,2.7571,2.7572,2.7592,2.7625,2.762,2.7474,2.7454,2.7434,2.7414,2.763,2.763,2.7773,2.7774,2.7775]},{"header":{"parameterUnit":"m.s-1","parameterCategory":1,"la1":30.2991,"la2":30.254,"lo1":-89.0895,"lo2":-89.0444,"dy":0.0017,"dx":0.0017,"nx":28,"ny":28,"refTime":"2024-07-13T21:00:00:Z","depth":0,"parameterNumber":3,"parameterNumberName":"V-component_of_WINDS"},"data":[0,0,0,0,0,0,0,0,0,0,0,0,0,0,0,0,0,0,0,0,0,0,0,0,0,0,0,0,0,0,0,0,0,0,0,0,0,0,0,0,0,0,0,0,0,0,0,0,0,0,0,0,0,0,0,0,0,0,-0.8495,-0.8495,0,-0.848,-0.8479,-0.8479,-0.8479,-0.848,-0.848,-0.848,-0.8463,-0.8462,-0.8461,0,0,0,0,0,0,0,0,0,0,0,0,0,-0.8524,-0.8523,-0.8495,-0.8495,-0.8495,-0.848,-0.8479,-0.8479,-0.8479,-0.848,-0.848,-0.848,-0.8463,-0.8462,-0.8461,0,0,0,0,0,0,0,0,0,0,0,0,0,-0.851,-0.8523,-0.8495,-0.8493,-0.8493,-0.848,-0.8479,-0.8479,-0.8479,-0.848,-0.848,-0.848,-0.8463,-0.8462,-0.8461,-0.8448,0,0,-0.8458,-0.8458,0,0,0,0,0,0,0,0,-0.8511,-0.8509,-0.8494,-0.8493,-0.8493,-0.8482,-0.8483,-0.8469,-0.8479,-0.8484,-0.848,-0.848,-0.8469,-0.8467,-0.8463,-0.8448,-0.8447,-0.8458,-0.8457,-0.8457,-0.8457,0,0,0,0,0,0,0,-0.8512,-0.851,-0.8489,-0.8493,-0.8493,-0.8493,-0.8491,-0.848,-0.8475,-0.8484,-0.8484,-0.8482,-0.8468,-0.8464,-0.8463,-0.8447,-0.8458,-0.8457,-0.8456,-0.8456,-0.842,-0.8419,0,0,0,0,0,0,-0.8513,-0.851,-0.8489,-0.8488,-0.8503,-0.8492,-0.849,-0.8485,-0.8475,-0.8474,-0.8482,-0.8482,-0.8466,-0.8464,-0.8462,-0.8447,-0.8457,-0.8456,-0.8455,-0.842,-0.842,-0.8419,0,0,0,0,0,0,-0.8514,-0.8512,-0.849,-0.8499,-0.8497,-0.8491,-0.8485,-0.8485,-0.8481,-0.8473,-0.8472,-0.8479,-0.8466,-0.8464,-0.8452,-0.8446,-0.8456,-0.8455,-0.8421,-0.842,-0.842,-0.8416,0,0,0,0,0,0,-0.8515,-0.8512,-0.8507,-0.8499,-0.8496,-0.848,-0.8485,-0.8484,-0.8479,-0.8479,-0.847,-0.8469,-0.8466,-0.8454,-0.8451,-0.8445,-0.8454,-0.8421,-0.842,-0.842,-0.8417,-0.8415,-0.8414,0,0,0,0,0,-0.8516,-0.8506,-0.8507,-0.8504,-0.849,-0.848,-0.8478,-0.8475,-0.8479,-0.8474,-0.8469,-0.8469,-0.8448,-0.8452,-0.845,-0.8443,-0.8421,-0.8421,-0.842,-0.8417,-0.8416,-0.8414,0,0,0,0,0,0,-0.8513,-0.8505,-0.8506,-0.8494,-0.8487,-0.848,-0.8474,-0.8474,-0.8466,-0.8467,-0.8463,-0.8461,-0.845,-0.8445,-0.8451,-0.8431,-0.8435,-0.8433,-0.8434,-0.8432,-0.8431,-0.8432,-0.8453,0,0,0,0,0,-0.8511,-0.8503,-0.8497,-0.8487,-0.8484,-0.8479,-0.8475,-0.8473,-0.8467,-0.8464,-0.8458,-0.8452,-0.8443,-0.8438,-0.8429,-0.8416,-0.8414,-0.8411,-0.8409,-0.8409,-0.8407,-0.84,-0.8398,-0.8417,-0.8417,-0.8417,0,0,-0.8506,-0.8501,-0.8497,-0.8486,-0.8481,-0.8473,-0.8477,-0.8468,-0.8462,-0.8462,-0.8451,-0.8447,-0.8439,-0.8426,-0.8421,-0.8422,-0.8402,-0.8408,-0.8407,-0.8406,-0.8399,-0.8397,-0.8395,-0.8416,-0.8416,-0.8416,0,0,-0.8494,-0.849,-0.8481,-0.8476,-0.8469,-0.8466,-0.8464,-0.8457,-0.8454,-0.8443,-0.8443,-0.8435,-0.8421,-0.8415,-0.8411,-0.8397,-0.8397,-0.8395,-0.8389,-0.8381,-0.838,-0.8379,-0.8374,-0.8372,-0.8393,-0.8393,-0.8393,0,-0.8489,-0.8478,-0.8476,-0.8467,-0.8463,-0.8463,-0.8454,-0.8449,-0.844,-0.8436,-0.8439,-0.8421,-0.8416,-0.8402,-0.8399,-0.8395,-0.8392,-0.8395,-0.838,-0.8379,-0.8378,-0.8373,-0.8371,-0.8393,-0.8393,-0.8393,-0.8393,0,-0.8472,-0.8464,-0.8458,-0.8449,-0.8444,-0.8435,-0.8431,-0.8426,-0.8425,-0.8422,-0.8411,-0.8405,-0.8395,-0.8392,-0.8391,-0.8378,-0.8379,-0.8381,-0.8385,-0.8376,-0.8371,-0.8369,-0.8393,-0.8393,-0.8393,-0.8393,0,0,-0.8457,-0.8448,-0.8445,-0.8442,-0.8434,-0.8427,-0.8419,-0.841,-0.8406,-0.8399,-0.8391,-0.838,-0.8381,-0.8376,-0.8374,-0.8368,-0.8358,-0.8371,-0.8371,-0.8368,-0.8343,-0.8341,-0.8339,-0.8358,-0.8358,-0.8357,-0.8344,0,-0.8443,-0.8428,-0.8427,-0.8413,-0.8405,-0.8406,-0.8398,-0.8392,-0.8389,-0.8382,-0.8379,-0.8371,-0.8374,-0.8371,-0.8365,-0.836,-0.8353,-0.8361,-0.835,-0.835,-0.8352,-0.8337,-0.8335,-0.8322,-0.8342,-0.8341,-0.8341,0,-0.8425,-0.8419,-0.8405,-0.8398,-0.8395,-0.8388,-0.8381,-0.8374,-0.8368,-0.8366,-0.836,-0.836,-0.835,-0.8355,-0.8342,-0.8348,-0.8344,-0.8341,-0.8341,-0.8339,-0.8344,-0.8334,-0.8318,-0.8316,-0.8338,-0.8339,-0.8339,0,-0.8415,-0.8403,-0.8393,-0.839,-0.8382,-0.8377,-0.8374,-0.8368,-0.8363,-0.8356,-0.8353,-0.8345,-0.8341,-0.8334,-0.8331,-0.8336,-0.8318,-0.8323,-0.8316,-0.8316,-0.8312,-0.8312,-0.8294,-0.831,-0.831,-0.831,-0.831,0,-0.84,-0.8391,-0.8388,-0.8382,-0.8372,-0.837,-0.836,-0.8357,-0.8352,-0.8345,-0.8345,-0.8338,-0.8335,-0.8328,-0.8325,-0.8315,-0.8313,-0.8311,-0.831,-0.831,-0.8311,-0.8307,-0.8307,-0.831,-0.831,-0.831,-0.831,0,-0.8386,-0.8384,-0.8373,-0.8367,-0.8366,-0.8359,-0.8353,-0.8347,-0.8345,-0.8336,-0.8333,-0.8329,-0.8321,-0.8318,-0.8307,-0.8305,-0.8293,-0.8293,-0.8295,-0.8295,-0.8288,-0.8288,-0.8266,-0.8263,-0.8282,-0.8281,-0.8281,0,-0.8377,-0.837,-0.8364,-0.8359,-0.8356,-0.8348,-0.8344,-0.8342,-0.8337,-0.833,-0.8324,-0.8316,-0.8309,-0.8295,-0.8291,-0.8283,-0.8283,-0.8276,-0.8281,-0.8282,-0.8282,-0.8282,-0.8281,-0.8274,-0.8274,-0.8274,-0.8274,0,-0.8359,-0.8359,-0.8352,-0.8345,-0.834,-0.8334,-0.8328,-0.8325,-0.8322,-0.8316,-0.8308,-0.8303,-0.8292,-0.8284,-0.8276,-0.8272,-0.8272,-0.8272,-0.827,-0.827,-0.8271,-0.827,-0.8292,-0.8272,-0.8273,-0.8273,-0.8273,-0.8273,-0.8347,-0.8341,-0.8336,-0.8328,-0.8324,-0.8319,-0.8313,-0.831,-0.8303,-0.8295,-0.8295,-0.8285,-0.8279,-0.8269,-0.8265,-0.8257,-0.8259,-0.8256,-0.8255,-0.8254,-0.8254,-0.8273,-0.8256,-0.8256,-0.8256,-0.8256,-0.8256,0,-0.8329,-0.8326,-0.8319,-0.8312,-0.8306,-0.8308,-0.8302,-0.8297,-0.8289,-0.8284,-0.8277,-0.8268,-0.826,-0.8255,-0.8247,-0.8242,-0.8242,-0.824,-0.824,-0.8239,-0.8253,-0.8255,-0.824,-0.824,-0.824,-0.824,-0.824,-0.824,-0.8319,-0.8309,-0.8308,-0.8296,-0.8293,-0.8284,-0.8281,-0.8276,-0.8272,-0.8261,-0.8255,-0.8252,-0.8247,-0.8239,-0.8232,-0.8231,-0.8227,-0.8225,-0.8224,-0.8236,-0.8238,-0.824,-0.8242,-0.8224,-0.8224,-0.8211,-0.8211,-0.8211]}]]